SCP
0 0 0 0 0 0 0 0 0 0 0 0 0 1 1 2 2 2 3 3 3 2 2 1 1 2 1 1 0 0 0 0 0 0 0 0 0 0 0 0 0 0 0 0
0 0 0 0 0 0 0 0 0 0 0 0 0 0 1 2 2 2 3 3 3 2 1 1 1 1 1 1 0 0 0 0 0 0 0 0 0 0 0 0 0 0 0 0
0 0 0 0 0 0 0 0 0 0 0 0 0 0 1 1 2 2 2 2 2 2 1 1 1 1 1 0 0 0 0 0 0 0 0 0 0 0 0 0 0 0 0 0
0 0 0 0 0 0 0 0 0 0 0 0 0 0 0 1 1 1 2 2 2 2 2 1 1 1 0 0 0 0 0 0 0 0 0 0 0 0 0 0 0 0 0 0
0 0 0 0 0 0 0 0 0 0 0 0 0 0 0 1 1 1 2 2 2 2 2 1 1 0 0 0 0 0 0 0 0 0 0 0 0 0 0 0 0 0 0 0
0 0 0 0 0 0 0 0 0 0 0 0 0 0 0 0 1 1 2 2 2 2 2 1 0 0 0 0 0 0 0 0 0 0 0 0 0 0 0 0 0 0 0 0
0 0 0 0 0 0 0 0 0 0 0 0 0 0 0 0 1 1 2 3 3 3 2 1 0 0 0 0 0 0 0 0 0 0 0 0 0 0 0 0 0 0 0 0
0 0 0 0 0 0 0 0 0 0 0 0 0 0 0 0 1 1 3 3 3 3 3 1 0 0 0 0 0 0 0 0 0 0 0 0 0 0 0 0 0 0 0 0
0 0 0 0 0 0 0 0 0 0 0 0 0 0 0 0 1 2 3 4 4 3 2 1 0 0 0 0 0 0 0 0 0 0 0 0 0 0 0 0 0 0 0 0
0 0 0 0 0 0 0 0 0 0 0 0 0 0 0 1 1 2 3 4 3 3 2 1 0 0 0 0 0 0 0 0 0 0 0 0 0 0 0 0 0 0 0 0
0 0 0 0 0 0 0 0 0 0 0 0 0 0 0 0 1 2 3 3 3 2 1 0 0 0 0 0 0 0 0 0 0 0 0 0 0 0 0 0 0 0 0 0
0 0 0 0 0 0 0 0 0 0 0 0 0 0 0 0 1 2 2 2 2 2 1 0 0 0 0 0 0 0 0 0 0 0 0 0 0 0 0 0 0 0 0 0
0 0 0 0 0 0 0 0 0 0 0 0 0 0 0 0 1 1 2 2 2 1 0 0 0 0 0 0 0 0 0 0 0 0 0 0 0 0 0 0 0 0 0 0
0 0 0 0 0 0 0 0 0 0 0 0 0 0 0 0 1 1 2 2 1 1 0 0 0 0 0 0 0 0 0 0 0 0 0 0 0 0 0 0 0 0 0 0
0 0 0 0 0 0 0 0 0 0 0 0 0 0 0 0 1 1 1 1 1 0 0 0 0 0 0 0 0 0 0 0 0 0 0 0 0 0 0 0 0 0 0 0
0 0 0 0 0 0 0 0 0 0 0 0 0 0 0 0 1 1 1 1 1 0 0 0 0 0 0 0 0 0 0 0 0 0 0 0 0 0 0 0 0 0 0 0
0 0 0 0 0 0 0 0 0 0 0 0 0 0 0 0 0 1 1 1 0 0 0 0 0 0 0 0 0 0 0 0 0 0 0 0 0 0 0 0 0 0 0 0
0 0 0 0 0 0 0 0 0 0 0 0 0 0 0 0 0 0 0 0 0 0 0 0 0 0 0 0 0 0 0 0 0 0 0 0 0 0 0 0 0 0 0 0
0 0 0 0 0 0 0 0 0 0 0 0 0 0 0 0 0 0 0 0 0 0 0 0 0 0 0 0 0 0 0 0 0 0 0 0 0 0 0 0 0 0 0 0
0 0 0 0 0 0 0 0 0 0 0 0 0 0 0 0 0 0 0 0 0 0 0 0 0 0 0 0 0 0 0 0 0 0 0 0 0 0 0 0 0 0 0 0
0 0 0 0 0 0 0 0 0 0 0 0 0 0 0 0 0 0 0 0 0 0 0 0 0 0 0 0 0 0 0 0 0 0 0 0 0 0 0 0 0 0 0 0
0 0 0 0 0 0 0 0 0 0 0 0 0 0 0 0 0 0 0 0 0 0 0 0 0 0 0 0 0 0 0 0 0 0 0 0 0 0 0 0 0 0 0 0
0 0 0 0 0 0 0 0 0 0 0 0 0 0 0 0 0 0 0 0 0 0 0 0 0 0 0 0 0 0 0 0 0 0 0 0 0 0 0 0 0 0 0 0
0 0 0 0 0 0 0 0 0 0 0 0 0 0 0 0 0 0 0 0 0 0 0 0 0 0 0 0 0 0 0 0 0 0 0 0 0 0 0 0 0 0 0 0
0 0 0 0 0 0 0 0 0 0 0 0 0 0 0 0 0 0 0 0 0 0 0 0 0 0 0 0 0 0 0 0 0 0 0 0 0 0 0 0 0 0 0 0
0 0 0 0 0 0 0 0 0 0 0 0 0 0 0 0 0 0 0 0 0 0 0 0 0 0 0 0 0 0 0 0 0 0 0 0 0 0 0 0 0 0 0 0
Wind_Speed
3 4 4 7 7 6 3 3 5 6 4 2 3 3 3 1 3 5 7 8 10 9 7 8 8 9 8 7 7 6 7 5 5 4 5 5 5 4 5 6 7 7 7 7
4 4 9 6 4 4 3 3 6 7 2 2 1 1 1 2 2 4 6 6 7 8 8 8 8 7 8 8 8 8 7 6 6 4 4 4 5 5 4 4 6 7 7 6
8 7 4 6 5 5 4 5 6 7 5 1 1 3 1 2 2 4 5 6 7 10 10 9 8 8 8 8 8 8 8 8 8 7 6 6 4 4 4 4 4 5 6 6
7 7 4 4 5 7 6 8 8 6 3 5 2 4 4 2 3 6 7 8 9 10 10 9 9 9 9 8 8 9 8 9 8 7 7 7 5 3 2 2 2 4 5 4
9 7 8 9 10 10 9 6 5 5 4 3 2 4 6 3 7 11 11 11 10 10 11 11 10 10 9 8 8 8 9 9 8 8 7 8 6 3 2 2 3 3 3 3
8 5 8 10 8 8 6 3 5 4 4 3 7 7 7 9 12 12 14 14 13 12 12 12 10 10 9 7 7 8 10 8 7 7 7 8 7 5 3 3 2 2 2 2
5 4 4 4 2 2 4 5 4 5 3 8 5 4 10 10 9 12 16 15 13 13 13 13 12 10 9 8 7 7 9 8 6 7 6 6 6 5 4 2 1 2 2 2
6 9 8 8 10 9 7 10 8 6 6 7 3 7 9 6 6 8 11 13 14 13 12 12 11 10 9 8 7 6 7 7 5 6 5 4 4 3 2 1 1 1 1 2
9 9 4 6 7 10 7 7 8 7 3 4 7 7 7 3 3 10 14 15 16 14 13 12 10 8 8 8 6 6 6 6 5 5 5 4 3 2 2 1 1 1 2 3
8 5 5 2 3 3 8 9 6 7 6 6 6 5 7 7 9 12 16 17 15 14 13 11 9 8 6 6 5 5 5 5 4 3 2 2 1 1 1 1 2 3 3 3
3 4 5 1 6 7 4 5 5 5 5 7 6 9 9 11 14 17 17 15 15 15 14 11 8 7 7 7 5 4 4 3 3 2 1 1 0 1 1 2 3 3 3 4
2 4 2 5 4 1 4 7 8 6 7 6 5 10 6 8 11 13 13 13 14 15 13 11 10 9 8 7 5 4 3 2 2 1 0 1 1 1 2 3 3 3 4 4
2 5 3 8 6 5 2 1 3 3 3 4 5 10 4 1 7 11 13 15 16 16 14 12 11 10 9 7 4 3 2 2 1 1 1 1 2 2 2 3 4 4 4 5
4 3 5 7 6 3 4 3 1 3 2 4 7 8 5 3 8 12 15 17 17 17 16 14 12 10 8 7 5 3 2 2 2 1 2 2 2 3 3 4 4 4 4 5
5 1 2 5 6 4 5 7 5 6 7 8 8 8 9 9 11 13 16 18 19 19 18 16 13 11 10 7 5 4 3 2 2 2 3 3 3 3 4 4 5 5 5 6
3 1 1 4 5 6 8 9 8 9 8 9 8 11 6 4 7 12 17 20 21 20 19 17 15 13 11 8 6 4 3 3 2 3 4 4 4 4 5 5 5 5 6 5
1 2 1 4 4 5 9 9 9 8 8 8 11 11 4 6 13 18 19 19 19 19 18 17 15 12 10 8 6 5 3 2 2 3 4 4 4 5 6 5 5 5 5 4
4 4 2 2 1 8 9 4 4 6 7 6 6 4 6 5 6 5 8 11 15 16 16 14 12 10 7 5 4 3 2 2 3 3 4 5 5 5 5 5 5 4 3 3
5 6 3 2 3 8 9 5 2 3 7 4 4 3 7 10 10 8 7 11 12 12 12 11 10 8 6 5 4 3 2 1 2 4 5 5 4 5 5 5 4 4 3 4
4 3 4 3 2 6 6 5 5 2 7 4 2 7 10 7 7 5 9 15 15 13 11 11 9 7 6 4 3 3 1 1 3 4 4 4 4 4 4 5 5 5 5 5
4 3 1 4 5 8 5 8 7 2 6 7 1 6 6 3 6 12 14 14 14 12 11 9 8 6 4 4 4 2 0 2 3 3 4 5 6 6 6 6 5 5 5 5
1 1 1 1 3 9 5 8 3 4 4 3 5 9 13 15 17 16 16 14 13 11 9 7 6 4 3 3 3 2 2 2 3 5 7 7 7 6 6 6 5 5 5 6
3 5 3 5 7 6 5 7 8 5 2 2 6 13 17 18 17 16 14 12 11 9 7 5 6 4 2 2 2 2 2 2 5 7 7 6 7 6 5 5 5 4 5 5
4 3 3 5 6 5 6 5 3 3 6 8 11 13 15 17 16 15 12 10 8 6 6 5 5 4 3 3 3 2 2 5 7 7 6 5 6 5 5 4 4 4 5 6
5 2 3 5 5 4 5 5 7 10 12 13 12 12 14 15 14 12 10 8 6 5 4 5 5 4 3 3 4 4 5 7 8 6 5 5 5 4 5 4 3 4 3 5
3 3 3 2 1 1 3 6 9 11 11 11 13 12 11 11 12 10 8 6 6 5 5 5 5 4 4 5 5 5 5 6 7 6 5 4 4 4 4 4 5 6 7 11
Wind_Direction
117 104 194 205 191 190 192 223 263 266 282 336 312 308 318 38 135 172 181 179 172 151 117 101 98 102 94 82 83 81 86 81 92 95 93 87 75 65 62 61 56 55 56 58
62 245 225 200 176 168 189 248 276 290 284 184 274 332 21 69 151 175 177 175 164 142 127 110 96 92 96 98 91 84 81 77 72 79 85 92 96 80 70 55 51 51 55 54
189 230 194 168 192 196 215 214 244 264 315 333 187 318 8 44 98 133 155 160 161 162 150 130 113 104 103 99 95 94 87 81 77 80 87 87 74 63 46 39 37 35 51 58
217 235 181 179 209 185 246 229 223 253 286 278 171 265 264 189 177 185 176 168 166 160 147 136 126 119 114 109 103 100 95 88 83 84 90 91 92 87 64 47 37 30 37 46
224 203 183 207 222 183 219 231 217 238 228 269 248 206 270 180 214 211 193 182 172 159 149 143 136 128 121 116 111 106 98 90 88 91 99 101 98 102 98 67 52 35 20 24
228 209 187 206 224 195 210 70 47 48 83 257 239 188 241 212 212 201 191 185 174 159 147 140 133 128 120 116 113 110 104 99 99 100 101 108 112 115 103 72 49 21 355 352
268 265 227 182 178 162 141 105 12 342 358 246 246 193 237 231 220 196 187 178 169 159 150 146 144 141 136 129 119 115 115 111 106 103 100 104 113 113 108 102 65 24 353 331
211 260 228 196 197 201 184 153 171 212 233 268 281 228 250 270 240 188 172 167 166 162 155 151 149 144 138 129 121 119 114 111 109 108 102 100 107 109 108 100 83 358 297 285
187 240 263 220 204 175 163 190 185 170 225 262 273 278 296 320 186 169 167 171 173 165 155 151 146 139 136 131 128 129 124 124 123 114 109 104 105 103 95 64 13 316 304 300
168 231 273 250 136 175 163 156 118 141 179 246 267 255 245 222 197 181 180 180 171 159 150 147 144 138 129 122 116 116 131 134 123 114 115 112 101 90 67 12 337 319 312 312
133 187 299 343 178 190 144 143 150 150 173 187 247 260 229 210 195 190 188 177 164 158 153 149 141 128 118 112 114 121 119 110 113 118 102 92 1 352 352 332 310 304 300 301
50 122 271 275 267 277 191 186 154 167 225 200 204 257 261 223 198 185 175 164 156 153 149 144 136 128 123 120 125 127 124 139 161 162 165 268 303 326 328 313 303 298 295 293
32 93 26 341 341 2 43 106 146 138 140 186 206 262 305 224 170 169 163 158 154 151 146 140 137 136 133 131 135 134 157 188 202 201 228 275 295 306 306 302 302 300 294 293
91 105 167 209 235 296 304 294 171 139 186 236 230 250 284 216 174 168 163 159 155 155 151 146 142 138 135 136 146 155 199 213 217 220 238 258 271 277 284 290 293 291 289 287
65 89 259 256 271 278 262 269 261 221 211 216 239 234 244 216 192 175 161 157 157 158 157 153 148 144 142 145 156 177 203 217 222 222 235 251 265 274 280 283 285 288 288 284
56 157 305 286 276 286 277 266 256 247 232 231 245 253 247 183 151 160 165 165 165 163 159 153 150 150 150 155 167 186 206 226 228 232 248 263 273 279 278 278 283 287 289 290
237 176 195 266 290 326 273 245 234 235 225 212 231 241 170 173 179 179 174 171 167 160 155 152 151 150 150 156 168 182 205 225 230 246 264 270 271 277 280 286 291 290 292 296
178 161 175 255 313 237 247 263 254 256 264 254 259 262 185 168 138 126 150 153 150 148 146 142 139 137 138 146 162 172 193 217 239 263 276 283 287 288 293 298 298 300 308 327
175 160 162 167 248 280 294 300 328 298 288 271 232 152 121 107 80 59 89 117 123 126 127 126 127 127 133 149 161 155 162 229 270 287 296 303 305 306 318 332 344 359 23 27
77 113 136 153 220 253 270 329 328 302 292 310 185 152 144 126 134 130 111 112 112 113 116 119 120 123 136 147 146 139 160 287 306 312 316 332 351 7 23 34 40 39 44 34
15 32 166 198 233 265 288 318 326 252 278 330 53 137 135 93 114 118 113 108 109 110 111 115 123 131 141 140 133 126 37 327 319 344 25 40 48 61 62 59 52 45 39 27
281 296 258 188 228 261 329 348 340 274 310 4 85 103 104 105 107 110 109 109 110 111 113 118 123 123 119 125 124 92 9 340 31 61 64 58 52 59 62 58 47 37 27 15
229 204 214 218 238 272 300 273 269 237 182 125 113 118 119 116 114 111 110 111 114 119 120 120 123 115 97 99 108 71 4 54 83 80 70 61 59 53 49 47 35 19 8 360
277 198 226 270 280 306 326 331 2 103 114 111 117 118 118 116 117 116 117 118 119 119 116 114 112 102 75 51 59 68 71 94 97 88 75 62 56 44 32 26 16 5 354 348
258 245 240 255 278 322 5 37 81 94 100 103 102 106 113 116 118 120 119 117 114 107 100 103 104 95 67 52 55 66 94 105 99 88 76 61 49 37 20 8 349 348 327 331
231 223 244 271 313 58 40 59 90 97 99 106 108 103 102 112 115 113 108 105 104 100 99 96 90 81 67 69 70 73 91 103 100 86 70 56 45 33 21 7 359 355 352 343